Miscellaneous Local Product
Issued by NWS North Platte, NE

Home | Current Version | Previous Version | Graphics & Text | Print | Product List | Glossary On
Versions: 1 2 3 4 5 6 7 8 9 10 11 12 13 14 15 16 17 18 19 20 21 22 23 24 25 26 27 28 29 30 31 32 33 34 35 36 37 38 39 40 41 42 43 44 45 46 47 48 49 50
000
AXUS43 KLBF 221110
MISLBF


WESTERN AND NORTH CENTRAL NEBRASKA HOURLY WEATHER ROUNDUP
NATIONAL WEATHER SERVICE NORTH PLATTE NE
500 AM CST WED NOV 22 2017

NOTE: "FAIR" INDICATES FEW OR NO CLOUDS BELOW 12,000 FEET WITH NO
SIGNIFICANT WEATHER AND/OR OBSTRUCTIONS TO VISIBILITY.

NOTE: STATIONS NOT REPORTING VARIABLES SUCH AS SKY/WEATHER OR
PRESSURE ARE PROVIDED BY RAWS AND APRS NETWORKS AND ARE NOT UNDER
NATIONAL WEATHER SERVICE QUALITY CONTROL.

...OBSERVATIONS IN AND NEAR THE EASTERN PANHANDLE OF NEBRASKA...

CITY           SKY/WX    TMP DP  RH WIND       PRES   REMARKS
PINE RIDGE     CLOUDY    34  28  79 W7        30.11F WCI  28
GORDON         FAIR      33  28  80 W6        30.10F WCI  28
CHADRON        CLOUDY    35  31  85 SW3       30.12S
ALLIANCE       CLOUDY    26  25  96 SW3       30.13F
SIDNEY         CLOUDY    34  30  85 W6        30.18F WCI  29
CRESCENT LAKE    N/A     30  29  95 S3          N/A
$$

...OBSERVATIONS IN NORTHERN NEBRASKA AND FAR SOUTHERN SOUTH DAKOTA...

CITY           SKY/WX    TMP DP  RH WIND       PRES   REMARKS
WINNER         FAIR      24  16  71 SE7       30.16F WCI  16
VALENTINE      CLOUDY    24  18  77 CALM      30.15F
THEDFORD       PTCLDY    31  18  58 SW7       30.19S WCI  24
AINSWORTH      CLOUDY    28  17  62 S14       30.16F WCI  17
O`NEILL        CLOUDY    18  14  86 SE6       30.25F WCI   9
ORD            CLOUDY    19  15  84 SE5       30.27F WCI  12
BROKEN BOW     CLOUDY    26  12  55 S8        30.23F WCI  18
VALENTINE NWR    N/A     26  15  63 S10         N/A  WCI  16
HALSEY           N/A     27  13  55 S8          N/A  WCI  19
BUTTE            N/A     15  11  82 SE8         N/A  WCI   4
CHAMBERS         N/A     17  10  72 W7          N/A  WCI   8
EWING            N/A     16  12  83 S3          N/A
$$

...OBSERVATIONS IN SOUTHWEST NEBRASKA AND FAR NORTHEAST COLORADO...

CITY           SKY/WX    TMP DP  RH WIND       PRES   REMARKS
HOLYOKE        FAIR      32  28  86 SW7       30.19F WCI  26
IMPERIAL       CLOUDY    32  26  78 S7        30.21F WCI  26
OGALLALA       CLOUDY    27  24  87 CALM      30.18F
NORTH PLATTE   CLOUDY    31  18  58 S8        30.20F WCI  23
MCCOOK         CLOUDY    25  18  74 SE5       30.26F WCI  19
LEXINGTON      CLOUDY    28  14  56 S8        30.27F WCI  20
STAPLETON        N/A     25  15  65 CALM        N/A
GOTHENBURG       N/A     30  15  52 S7          N/A  WCI  23
CALLAWAY         N/A     25  15  65 S12         N/A  WCI  14
$$

...OBSERVATIONS IN CENTRAL LINCOLN COUNTY AREA...

CITY           SKY/WX    TMP DP  RH WIND       PRES   REMARKS
N.P. AIRPORT   CLOUDY    31  18  58 S8        30.20F WCI  23
N.P. DOWNTOWN    N/A     30  19  64 CALM        N/A
N.P. SOUTHEAST   N/A     29  18  63 S3          N/A
N.P. HILLCREST   N/A     28  18  65 SE7         N/A  WCI  21
$$

...SOME OBSERVATIONS FROM AROUND THE REGION...

CITY           SKY/WX    TMP DP  RH WIND       PRES   REMARKS
DENVER         CLOUDY    36  29  75 W3        30.24R
COPPER MTN     CLOUDY    28  25  86 MISG      30.54S
GRAND JUNCTION CLOUDY    35  26  69 E6        30.42F WCI  30
LARAMIE        CLOUDY    40  33  76 W24       30.28F WCI  29
CHEYENNE       CLOUDY    48  34  58 W14G22    30.22F
CASPER         CLOUDY    45  34  65 SW20      30.17F
BISMARCK       CLEAR     15  11  83 SE7       30.10F WCI   5
RAPID CITY     CLOUDY    29  22  75 CALM      30.04F
PIERRE         CLOUDY    19  12  74 SE12      30.15F WCI   7
SIOUX FALLS    CLOUDY    13   7  77 S5        30.31F WCI   5
OMAHA          CLOUDY    16   9  74 CALM      30.40S
GRAND ISLAND   CLOUDY    20  15  81 S6        30.34F WCI  12
SCOTTSBLUFF    CLOUDY    33  26  75 CALM      30.17F
KANSAS CITY    CLOUDY    16  12  84 CALM      30.41S
HILL CITY      CLOUDY    25  16  68 CALM      30.35F
WICHITA        CLOUDY    25  15  66 N6        30.42S WCI  18
DODGE CITY     CLOUDY    25  14  63 S9        30.35F WCI  15
OKLAHOMA CITY  PTCLDY    30  15  53 NE8       30.40R WCI  22
DALLAS         CLEAR     45  19  35 N18       30.31R
AMARILLO       CLOUDY    32  25  75 CALM      30.38F
$$




USA.gov is the U.S. government's official web portal to all federal, state and local government web resources and services.